Regional Weather Roundup
Issued by NWS

Home | Current Version | Previous Version | Graphics & Text | Print | Product List | Glossary On
Versions: 1 2 3 4 5 6 7 8 9 10 11 12 13 14 15 16 17 18 19 20 21 22 23 24 25 26 27 28 29 30 31 32 33 34 35 36 37 38 39 40 41 42 43 44 45 46 47 48 49 50
000
ASUS44 KMEG 300010
RWRTN
TENNESSEE HOURLY STATE WEATHER ROUNDUP
NATIONAL WEATHER SERVICE MEMPHIS TN
700 PM CDT WED OCT 29 2014

TNZ002-004-019-021-049-052-054-088>092-300100-
WEST TENNESSEE

CITY           SKY/WX    TMP DP  RH WIND       PRES   REMARKS
MEMPHIS INTL   CLEAR     63  40  42 CALM      30.14R
NWS MEMPHIS      N/A     55 N/A N/A MISG        N/A
JACKSON        CLEAR     53  44  71 CALM      30.13S
DYERSBURG      CLEAR     54  37  54 CALM      30.14S
UNION CITY     CLEAR     52  39  62 CALM      30.13R
PARIS          CLEAR     52  39  62 CALM      30.13S
HUNTINGDON     CLEAR     52  40  63 CALM      30.13S
LEXINGTON      CLEAR     54  39  58 NW5       30.12S
SAVANNAH       CLEAR     50  46  87 CALM      30.13R
$$

TNZ008-025-027-028-033-062-065-066-300100-
NORTH MIDDLE TENNESSEE

CITY           SKY/WX    TMP DP  RH WIND       PRES   REMARKS
NASHVILLE      PTCLDY    58  37  45 NW5       30.12R
DICKSON        PTCLDY    54  41  62 CALM      30.12R
PORTLAND       CLEAR     54  37  54 W5        30.11R
CLARKSVILLE    CLEAR     53  36  52 NW7       30.12R
LEBANON        CLEAR     56  39  52 CALM      30.10
SMYRNA         CLEAR     56  40  55 N6        30.12R
MURFREESBORO   CLEAR     57  38  49 N3        30.11R
COOKEVILLE     CLEAR     46  45  93 CALM      30.10R
LIVINGSTON     PTCLDY    54  37  52 NW5       30.11R
GALLATIN       CLEAR     56  41  57 CALM      30.12R
CROSSVILLE     CLEAR     51  38  60 CALM      30.11R
ROCKWOOD       CLEAR     52  38  58 NW5       30.09R
$$

TNZ061-075-076-078-094-096-097-300100-
SOUTH MIDDLE TENNESSEE

CITY           SKY/WX    TMP DP  RH WIND       PRES   REMARKS
FAYETTEVILLE   CLEAR     54  39  58 N33       30.11R
TULLAHOMA      CLEAR     48  39  71 CALM      30.12R
WINCHESTER     CLEAR     48  43  81 CALM      30.12R
MCMINNVILLE    CLEAR     50  43  76 CALM      30.11R
COLUMBIA       CLEAR     57  39  51 CALM      30.11R
SHELBYVILLE    CLEAR     54  45  71 CALM      30.12R
$$

TNZ017-018-042-046-047-300100-
NORTHEAST TENNESSEE

CITY           SKY/WX    TMP DP  RH WIND       PRES   REMARKS
TRI CITIES     PTCLDY    49  45  86 SW3       30.09R
ELIZABETHTON   CLEAR     43  41  93 CALM      30.10R
$$

TNZ012-013-036-069-073-074-300100-
CENTRAL EAST TENNESSEE

CITY           SKY/WX    TMP DP  RH WIND       PRES   REMARKS
KNOXVILLE      PTCLDY    55  43  63 CALM      30.08R
OAK RIDGE      CLEAR     53  48  83 CALM      30.11R
GATLINBURG     CLEAR     46  43  87 CALM      30.09R
MORRISTOWN     CLEAR     52  45  76 SW3       30.10R
$$

TNZ083-085-099-300100-
SOUTHEAST TENNESSEE

CITY           SKY/WX    TMP DP  RH WIND       PRES   REMARKS
CHATTANOOGA    PTCLDY    56  43  61 NW6       30.10R
$$

SKY/WX REPORTED AS FAIR MEANS FEW OR NO CLOUDS BELOW
12 THOUSAND FEET.




USA.gov is the U.S. government's official web portal to all federal, state and local government web resources and services.